Location: Unspecified
(47.7670°N, 8.8522°E)
Time: 01:22:50
(UTC+01:00)

ISS - Pass Details

Date: 28 January 2019
Orbit: 403 x 411 km, 51.6° (Epoch: 22 February)

Event Time Altitude Azimuth Distance (km) Brightness Sun altitude
Rises 19:05:04 0° 264° (W) 2,331 1.8 -17.9°
Reaches altitude 10° 19:07:12 10° 270° (W) 1,473 0.3 -18.2°
Maximum altitude 19:10:25 50° 347° (NNW) 534 -3.3 -18.8°
Enters shadow 19:10:48 47° 13° (NNE) 557 -3.4 -18.8°
